EW3836 Weather Reports


Display with metric or nautical units.
time (UTC)temp
F
wind
direction
speed
MPH
gust
MPH
rain 1hr
in
rain 24hr
in
rain mn
in
humidity
%
barometer
mb
20260901031625 70 31 0.0 0.0 0.00 0.00 0.00 29 1004.5
20260901031501 70 30 0.0 0.0 0.00 0.00 0.00 29 1004.5
20260901030100 71 41 0.0 0.0 0.00 0.00 0.00 29 1004.5
20260901024559 71 32 0.0 0.0 0.00 0.00 0.00 29 1004.7
20260901023106 72 35 0.0 0.0 0.00 0.00 0.00 29 1004.8
20260901021558 72 46 0.0 0.0 0.00 0.00 0.00 28 1004.9
20260901020055 73 47 0.0 0.0 0.00 0.00 0.00 27 1005.0
20260901014600 74 55 0.0 0.0 0.00 0.00 0.00 26 1005.0
20260901013054 75 22 0.0 0.0 0.00 0.00 0.00 26 1005.1
20260901011551 76 50 0.0 0.0 0.00 0.00 0.00 26 1005.1
20260901010050 77 30 0.0 0.0 0.00 0.00 0.00 26 1005.2
20260901004548 78 36 0.0 0.0 0.00 0.00 0.00 26 1005.4
20260901003056 78 9 0.0 0.0 0.00 0.00 0.00 25 1005.6
20260901001602 78 355 0.0 0.0 0.00 0.00 0.00 26 1005.8
20260901000041 78 73 0.0 0.0 0.00 0.00 0.00 25 1005.9
20260831234540 78 57 0.0 0.0 0.00 0.00 0.00 27 1006.1
20260831233039 79 28 0.0 0.0 0.00 0.00 0.00 25 1006.3
20260831231534 81 355 0.0 0.0 0.00 0.00 0.00 25 1006.5
20260831230032 80 49 0.0 0.0 0.00 0.00 0.00 26 1006.8
20260831224530 79 51 0.0 0.0 0.00 0.00 0.00 27 1007.0
20260831223028 79 50 0.0 0.0 0.00 0.00 0.00 27 1007.2
20260831221525 80 37 0.0 0.0 0.00 0.00 0.00 27 1007.4
20260831220022 81 63 0.0 0.0 0.00 0.00 0.00 26 1007.6
20260831214521 81 141 0.0 0.0 0.00 0.00 0.00 26 1007.9
20260831213021 81 321 0.0 0.0 0.00 0.00 0.00 25 1008.1
20260831211515 80 355 0.0 0.0 0.00 0.00 0.00 26 1008.2
20260831210011 81 57 0.0 0.0 0.00 0.00 0.00 26 1008.3
20260831204510 80 224 0.0 0.0 0.00 0.00 0.00 26 1008.6
20260831203007 79 315 0.0 0.0 0.00 0.00 0.00 27 1008.8
20260831201501 79 350 0.0 0.0 0.00 0.00 0.00 26 1009.1
20260831200058 78 198 0.0 0.0 0.00 0.00 0.00 28 1009.3
20260831194607 77 61 0.0 0.0 0.00 0.00 0.00 29 1009.4
20260831193053 76 19 0.0 0.0 0.00 0.00 0.00 30 1009.6
20260831191559 77 98 0.0 0.0 0.00 0.00 0.00 29 1009.8
20260831190050 77 46 0.0 0.0 0.00 0.00 0.00 30 1010.1
20260831184550 77 26 0.0 0.0 0.00 0.00 0.00 29 1010.3
20260831183043 76 13 0.0 0.0 0.00 0.00 0.00 30 1010.5
20260831181539 74 308 0.0 0.0 0.00 0.00 0.00 31 1010.6
20260831180033 72 330 0.0 0.0 0.00 0.00 0.00 33 1010.9
20260831174532 71 5 0.0 0.0 0.00 0.00 0.00 33 1011.1
20260831173028 70 57 0.0 0.0 0.00 0.00 0.00 34 1011.2
20260831171528 69 321 0.0 0.0 0.00 0.00 0.00 33 1011.2
20260831170026 68 314 0.0 0.0 0.00 0.00 0.00 34 1011.3
20260831164537 68 314 0.0 0.0 0.00 0.00 0.00 33 1011.3
20260831163024 69 319 0.0 0.0 0.00 0.00 0.00 33 1011.5
20260831161522 68 147 0.0 0.0 0.00 0.00 0.00 32 1011.7
20260831160017 67 79 0.0 0.0 0.00 0.00 0.00 34 1011.8
20260831154514 65 169 0.0 0.0 0.00 0.00 0.00 35 1011.9
20260831153012 64 120 0.0 0.0 0.00 0.00 0.00 37 1012.0
20260831151506 62 132 0.0 0.0 0.00 0.00 0.00 38 1012.0
20260831150000 61 142 0.0 0.0 0.00 0.00 0.00 40 1012.0
20260831144558 60 139 0.0 0.0 0.00 0.00 0.00 41 1012.0
20260831143100 59 124 0.0 0.0 0.00 0.00 0.00 42 1011.9
20260831141558 58 116 0.0 0.0 0.00 0.00 0.00 43 1011.8
20260831140048 56 121 0.0 0.0 0.00 0.00 0.00 44 1011.9
20260831134553 56 133 0.0 0.0 0.00 0.00 0.00 45 1011.8
20260831133046 56 128 0.0 0.0 0.00 0.00 0.00 45 1011.8
20260831131547 56 125 0.0 0.0 0.00 0.00 0.00 45 1011.8
20260831130044 56 123 0.0 0.0 0.00 0.00 0.00 44 1012.0
20260831124555 57 93 0.0 0.0 0.00 0.00 0.00 43 1011.9
20260831123041 56 110 0.0 0.0 0.00 0.00 0.00 45 1012.0
20260831121539 56 111 0.0 0.0 0.00 0.00 0.00 44 1011.9
20260831120046 56 111 0.0 0.0 0.00 0.00 0.00 44 1012.1
20260831114547 56 111 0.0 0.0 0.00 0.00 0.00 45 1012.2
20260831113036 56 129 0.0 0.0 0.00 0.00 0.00 46 1012.2
20260831111534 55 117 0.0 0.0 0.00 0.00 0.00 47 1012.2
20260831110033 55 118 0.0 0.0 0.00 0.00 0.00 47 1012.2
20260831104544 56 117 0.0 0.0 0.00 0.00 0.00 46 1012.3
20260831103035 56 132 0.0 0.0 0.00 0.00 0.00 46 1012.3
20260831101529 56 120 0.0 0.0 0.00 0.00 0.00 47 1012.4
20260831100038 56 124 0.0 0.0 0.00 0.00 0.00 47 1012.5
20260831094526 56 120 0.0 0.0 0.00 0.00 0.00 47 1012.6
20260831093033 56 118 0.0 0.0 0.00 0.00 0.00 48 1012.7
20260831091521 56 126 0.0 0.0 0.00 0.00 0.00 48 1012.9
20260831090018 55 124 0.0 0.0 0.00 0.00 0.00 49 1013.2
20260831084516 55 126 0.0 0.0 0.00 0.00 0.00 49 1013.3
20260831083032 55 138 0.0 0.0 0.00 0.00 0.00 49 1013.4
20260831081513 55 115 0.0 0.0 0.00 0.00 0.00 50 1013.4
20260831080014 55 126 0.0 0.0 0.00 0.00 0.00 50 1013.4
20260831074511 56 130 0.0 0.0 0.00 0.00 0.00 50 1013.4
20260831073010 55 141 0.0 0.0 0.00 0.00 0.00 50 1013.5
20260831071522 57 141 0.0 0.0 0.00 0.00 0.00 49 1013.5
20260831070005 56 141 0.0 0.0 0.00 0.00 0.00 49 1013.5
20260831064504 56 141 0.0 0.0 0.00 0.00 0.00 49 1013.6
20260831063003 56 130 0.0 0.0 0.00 0.00 0.00 49 1013.7
20260831061505 56 121 0.0 0.0 0.00 0.00 0.00 49 1013.8
20260831060104 57 132 0.0 0.0 0.00 0.00 0.00 48 1013.8
20260831060001 57 132 0.0 0.0 0.00 0.00 0.00 48 1013.8
20260831054600 57 122 0.0 0.0 0.00 0.00 0.00 48 1013.8
20260831054501 57 125 0.0 0.0 0.00 0.00 0.00 48 1013.9
20260831053104 57 126 0.0 0.0 0.00 0.00 0.00 49 1013.8
20260831051602 58 123 0.0 0.0 0.00 0.00 0.00 48 1014.0
20260831050113 58 92 0.0 0.0 0.00 0.00 0.00 48 1014.1
20260831044619 58 92 0.0 0.0 0.00 0.00 0.00 48 1014.3
20260831043057 58 92 0.0 0.0 0.00 0.00 0.00 48 1014.3
20260831041613 59 59 0.0 0.0 0.00 0.00 0.00 47 1014.3
20260831040056 59 35 0.0 0.0 0.00 0.00 0.00 48 1014.2
20260831034558 59 35 0.0 0.0 0.00 0.00 0.00 48 1014.2
20260831033055 60 35 0.0 0.0 0.00 0.00 0.00 47 1014.3